Tillbaka till svenska Fidonet
English   Information   Debug  
FILM   0/18
FNEWS_PUBLISH   4983
FN_SYSOP   42232
FN_SYSOP_OLD1   71952
FTP_FIDO   0/2
FTSC_PUBLIC   0/13976
FUNNY   0/4886
GENEALOGY.EUR   0/71
GET_INFO   105
GOLDED   0/408
HAM   5682/16712
HOLYSMOKE   0/6791
HOT_SITES   0/1
HTMLEDIT   0/71
HUB203   466
HUB_100   264
HUB_400   39
HUMOR   0/29
IC   0/2851
INTERNET   0/424
INTERUSER   0/3
IP_CONNECT   719
JAMNNTPD   0/233
JAMTLAND   0/47
KATTY_KORNER   0/41
LAN   0/16
LINUX-USER   0/19
LINUXHELP   0/1155
LINUX   0/22382
LINUX_BBS   0/957
mail   18.68
mail_fore_ok   249
MENSA   0/341
MODERATOR   0/102
MONTE   0/992
MOSCOW_OKLAHOMA   0/1245
MUFFIN   0/783
MUSIC   0/321
N203_STAT   938
N203_SYSCHAT   313
NET203   321
NET204   69
NET_DEV   0/10
NORD.ADMIN   0/101
NORD.CHAT   0/2572
NORD.FIDONET   189
NORD.HARDWARE   0/28
NORD.KULTUR   0/114
NORD.PROG   0/32
NORD.SOFTWARE   0/88
NORD.TEKNIK   0/58
NORD   0/453
OCCULT_CHAT   0/93
OS2BBS   0/787
OS2DOSBBS   0/580
OS2HW   0/42
OS2INET   0/37
OS2LAN   0/134
OS2PROG   0/36
OS2REXX   0/113
OS2USER-L   207
OS2   0/4831
OSDEBATE   0/18996
PASCAL   0/490
PERL   0/457
PHP   0/45
POINTS   0/405
POLITICS   0/29554
POL_INC   0/14731
PSION   103
R20_ADMIN   1133
R20_AMATORRADIO   0/2
R20_BEST_OF_FIDONET   16
R20_CHAT   0/897
R20_DEPP   0/3
R20_DEV   400
R20_ECHO2   1889
R20_ECHOPRES   0/35
R20_ESTAT   0/719
R20_FIDONETPROG...
...RAM.MYPOINT
  0/2
R20_FIDONETPROGRAM   0/22
R20_FIDONET   0/248
R20_FILEFIND   0/24
R20_FILEFOUND   0/22
R20_HIFI   0/3
R20_INFO2   3781
R20_INTERNET   0/12940
R20_INTRESSE   0/60
R20_INTR_KOM   0/99
R20_KANDIDAT.CHAT   42
R20_KANDIDAT   28
R20_KOM_DEV   112
R20_KONTROLL   0/13360
R20_KORSET   0/18
R20_LOKALTRAFIK   0/24
R20_MODERATOR   0/1852
R20_NC   76
R20_NET200   245
R20_NETWORK.OTH...
...ERNETS
  0/13
R20_OPERATIVSYS...
...TEM.LINUX
  0/44
R20_PROGRAMVAROR   0/1
R20_REC2NEC   534
R20_SFOSM   0/341
R20_SF   0/108
R20_SPRAK.ENGLISH   0/1
R20_SQUISH   107
R20_TEST   2
R20_WORST_OF_FIDONET   20
RAR   0/9
RA_MULTI   106
RA_UTIL   0/162
REGCON.EUR   0/2069
REGCON   0/13
SCIENCE   0/1206
SF   0/239
SHAREWARE_SUPPORT   0/5146
SHAREWRE   0/14
SIMPSONS   0/169
STATS_OLD1   0/2539.065
STATS_OLD2   0/2530
STATS_OLD3   0/2395.095
STATS_OLD4   0/1692.25
SURVIVOR   0/495
SYSOPS_CORNER   0/3
SYSOP   0/84
TAGLINES   0/112
TEAMOS2   0/4530
TECH   0/2617
TEST.444   0/105
TRAPDOOR   0/19
TREK   0/755
TUB   0/290
UFO   0/40
UNIX   0/1316
USA_EURLINK   0/102
USR_MODEMS   0/1
VATICAN   0/2740
VIETNAM_VETS   0/14
VIRUS   0/378
VIRUS_INFO   0/201
VISUAL_BASIC   0/473
WHITEHOUSE   0/5187
WIN2000   0/101
WIN32   0/30
WIN95   0/4291
WIN95_OLD1   0/70272
WINDOWS   0/1517
WWB_SYSOP   0/419
WWB_TECH   0/810
ZCC-PUBLIC   0/1
ZEC   4

 
4DOS   0/134
ABORTION   0/7
ALASKA_CHAT   0/506
ALLFIX_FILE   0/1313
ALLFIX_FILE_OLD1   0/7997
ALT_DOS   0/152
AMATEUR_RADIO   0/1039
AMIGASALE   0/14
AMIGA   0/331
AMIGA_INT   0/1
AMIGA_PROG   0/20
AMIGA_SYSOP   0/26
ANIME   0/15
ARGUS   0/924
ASCII_ART   0/340
ASIAN_LINK   0/651
ASTRONOMY   0/417
AUDIO   0/92
AUTOMOBILE_RACING   0/105
BABYLON5   0/17862
BAG   135
BATPOWER   0/361
BBBS.ENGLISH   0/382
BBSLAW   0/109
BBS_ADS   0/5290
BBS_INTERNET   0/507
BIBLE   0/3563
BINKD   0/1119
BINKLEY   0/215
BLUEWAVE   0/2173
CABLE_MODEMS   0/25
CBM   0/46
CDRECORD   0/66
CDROM   0/20
CLASSIC_COMPUTER   0/378
COMICS   0/15
CONSPRCY   0/899
COOKING   42003
COOKING_OLD1   0/24719
COOKING_OLD2   0/40862
COOKING_OLD3   0/37489
COOKING_OLD4   0/35496
COOKING_OLD5   9370
C_ECHO   0/189
C_PLUSPLUS   0/31
DIRTY_DOZEN   0/201
DOORGAMES   0/2333
DOS_INTERNET   0/196
duplikat   6102
ECHOLIST   0/18295
EC_SUPPORT   0/318
ELECTRONICS   0/359
ELEKTRONIK.GER   1534
ENET.LINGUISTIC   0/13
ENET.POLITICS   0/4
ENET.SOFT   0/11701
ENET.SYSOP   34332
ENET.TALKS   0/32
ENGLISH_TUTOR   0/2000
EVOLUTION   0/1335
FDECHO   0/217
FDN_ANNOUNCE   0/7068
FIDONEWS   25122
FIDONEWS_OLD1   0/49742
FIDONEWS_OLD2   0/35949
FIDONEWS_OLD3   0/30874
FIDONEWS_OLD4   0/37224
FIDO_SYSOP   12973
FIDO_UTIL   0/180
FILEFIND   0/209
FILEGATE   0/212
Möte HAM, 16712 texter
 lista första sista föregående nästa
Text 4169, 852 rader
Skriven 2010-12-03 00:31:00 av Amsat List (1:323/120.0)
Ärende: [keps]  orb10336.amsa
=============================
[keps]  orb10336.amsa

Return-Path: <keps-bounces@amsat.org>
X-Rcpt: craig.healy@chowda.com
X-UIDL: 1291353004.44387

SB KEPS @ AMSAT  $ORB10336.O
Orbital Elements  10336.OSCAR

HR AMSAT ORBITAL ELEMENTS FOR OSCAR SATELLITES
FROM WA5QGD FORT WORTH,TX December 2, 2010
Send Subscribe/unsubscribe to KEPS at http://www.amsat.org/mailman/listinfo/kep
BID: ORB10336.O
TO ALL RADIO AMATEURS BT

Satellite: AO-07
Catalog number: 07530
Epoch time:      10335.95527358
Element set:    0943
Inclination:      101.3965 deg
RA of node:       345.2794 deg
Eccentricity:    0.0011746
Arg of perigee:   306.0934 deg
Mean anomaly:     053.9048 deg
Mean motion:   12.53580383 rev/day
Decay rate:       -2.7e-07 rev/day^2
Epoch rev:           64947
Checksum:              315

Satellite: FO-29
Catalog number: 24278
Epoch time:      10336.86297910
Element set:     453
Inclination:      098.5174 deg
RA of node:       142.7345 deg
Eccentricity:    0.0351302
Arg of perigee:   046.3681 deg
Mean anomaly:     316.6034 deg
Mean motion:   13.52955092 rev/day
Decay rate:        3.4e-07 rev/day^2
Epoch rev:           70591
Checksum:              307

Satellite: SO-33
Catalog number: 25509
Epoch time:      10336.84104656
Element set:     850
Inclination:      031.4351 deg
RA of node:       274.7601 deg
Eccentricity:    0.0353654
Arg of perigee:   324.5059 deg
Mean anomaly:     033.2531 deg
Mean motion:   14.28342946 rev/day
Decay rate:       2.90e-06 rev/day^2
Epoch rev:           63218
Checksum:              286

Satellite: RS-22
Catalog number: 27939
Epoch time:      10336.73075217
Element set:     776
Inclination:      097.8677 deg
RA of node:       194.8350 deg
Eccentricity:    0.0012493
Arg of perigee:   246.4333 deg
Mean anomaly:     113.5561 deg
Mean motion:   14.63483641 rev/day
Decay rate:        8.6e-07 rev/day^2
Epoch rev:           38360
Checksum:              324

Satellite: VO-52
Catalog number: 28650
Epoch time:      10335.86958206
Element set:    0660
Inclination:      097.6721 deg
RA of node:       022.5625 deg
Eccentricity:    0.0028310
Arg of perigee:   088.1156 deg
Mean anomaly:     272.3259 deg
Mean motion:   14.81862338 rev/day
Decay rate:        7.0e-07 rev/day^2
Epoch rev:           30152
Checksum:              296

Satellite: SO-67
Catalog number: 35870
Epoch time:      10336.73065451
Element set:     342
Inclination:      097.3106 deg
RA of node:       021.2110 deg
Eccentricity:    0.0001919
Arg of perigee:   198.2624 deg
Mean anomaly:     279.7177 deg
Mean motion:   15.21214704 rev/day
Decay rate:       8.07e-06 rev/day^2
Epoch rev:            6707
Checksum:              286

Satellite: HO-68
Catalog number: 36122
Epoch time:      10336.68207581
Element set:     897
Inclination:      100.4472 deg
RA of node:       035.2341 deg
Eccentricity:    0.0007207
Arg of perigee:   315.2432 deg
Mean anomaly:     044.8100 deg
Mean motion:   13.16282916 rev/day
Decay rate:       -4.5e-07 rev/day^2
Epoch rev:            4638
Checksum:              272

/EX
SB KEPS @ AMSAT  $ORB10336.D
Orbital Elements  10336.MICROS

HR AMSAT ORBITAL ELEMENTS FOR THE MICROSATS
FROM WA5QGD FORT WORTH,TX December 2, 2010
Send Subscribe/unsubscribe to KEPS at http://www.amsat.org/mailman/listinfo/kep
BID: ORB10336.D
TO ALL RADIO AMATEURS BT

Satellite: UO-11
Catalog number: 14781
Epoch time:      10336.72466084
Element set:     407
Inclination:      098.0340 deg
RA of node:       028.7638 deg
Eccentricity:    0.0010040
Arg of perigee:   058.4538 deg
Mean anomaly:     301.7667 deg
Mean motion:   14.79866114 rev/day
Decay rate:       4.27e-06 rev/day^2
Epoch rev:           43673
Checksum:              303

Satellite: AO-16
Catalog number: 20439
Epoch time:      10336.80646145
Element set:      58
Inclination:      098.3578 deg
RA of node:       288.2788 deg
Eccentricity:    0.0011473
Arg of perigee:   030.4377 deg
Mean anomaly:     329.7481 deg
Mean motion:   14.31885814 rev/day
Decay rate:        3.7e-07 rev/day^2
Epoch rev:            8951
Checksum:              329

Satellite: LO-19
Catalog number: 20442
Epoch time:      10335.65936074
Element set:    0967
Inclination:      098.3191 deg
RA of node:       292.3034 deg
Eccentricity:    0.0012247
Arg of perigee:   028.4606 deg
Mean anomaly:     331.7232 deg
Mean motion:   14.32114383 rev/day
Decay rate:        5.8e-07 rev/day^2
Epoch rev:           08952
Checksum:              291

Satellite: AO-27
Catalog number: 22825
Epoch time:      10335.46265446
Element set:    0689
Inclination:      098.5072 deg
RA of node:       279.2504 deg
Eccentricity:    0.0008825
Arg of perigee:   132.3764 deg
Mean anomaly:     227.8155 deg
Mean motion:   14.29318070 rev/day
Decay rate:        7.3e-07 rev/day^2
Epoch rev:           89594
Checksum:              330

Satellite: IO-26
Catalog number: 22826
Epoch time:      10335.56804304
Element set:    0427
Inclination:      098.5017 deg
RA of node:       279.8951 deg
Eccentricity:    0.0009609
Arg of perigee:   127.7183 deg
Mean anomaly:     232.4871 deg
Mean motion:   14.29576409 rev/day
Decay rate:        2.9e-07 rev/day^2
Epoch rev:           89607
Checksum:              333

Satellite: GO-32
Catalog number: 25397
Epoch time:      10335.84896690
Element set:    0347
Inclination:      098.3175 deg
RA of node:       334.0969 deg
Eccentricity:    0.0002117
Arg of perigee:   115.8413 deg
Mean anomaly:     244.2986 deg
Mean motion:   14.23190126 rev/day
Decay rate:      -1.16e-06 rev/day^2
Epoch rev:           64389
Checksum:              321

